Location: St. Louis
(38.6270°N, 90.1994°W)
Time: 13:54:58
(UTC-06:00)

Vanguard 1 - Pass Details

Date: 08 December 2021
Orbit: 652 x 3830 km, 34.2° (Epoch: 19 January)

Event Time Altitude Azimuth Distance (km) Brightness Sun altitude
Rises 22:05:48 0° 233° (SW) 6,211 14.3 -62.2°
Reaches altitude 10° 22:09:21 10° 230° (SW) 5,541 13.9 -62.8°
Enters shadow 22:13:37 23° 224° (SW) 4,846 13.5 -63.6°
Maximum altitude 22:27:40 63° 154° (SSE) 3,949 - -65.9°
Drops below altitude 10° 22:50:33 10° 81° (E) 6,723 - -69.3°
Exits shadow 22:54:21 - 79° (E) 7,359 14.4 -69.8°
Sets 22:55:24 0° 79° (E) 7,538 14.5 -70.0°
